Regional Weather Roundup
Issued by NWS

Current Version | Previous Version | Text Only | Print | Product List | Glossary On
Versions: 1 2 3 4 5 6 7 8 9 10 11 12 13 14 15 16 17 18 19 20 21 22 23 24 25 26 27 28 29 30 31 32 33 34 35 36 37 38 39 40 41 42 43 44 45 46 47 48 49 50
000
ASUS42 KTBW 310710
RWRFL
FLORIDA REGIONAL WEATHER ROUNDUP
NATIONAL WEATHER SERVICE TAMPA BAY RUSKIN FL
300 AM EDT THU JUL 31 2014

NOTE: "FAIR" INDICATES FEW OR NO CLOUDS BELOW 12,000 FEET WITH NO
SIGNIFICANT WEATHER AND/OR OBSTRUCTIONS TO VISIBILITY.


FLZ001>010-012>015-112-114-115-310800-
PANHANDLE FLORIDA

CITY           SKY/WX    TMP DP  RH WIND       PRES   REMARKS
PENSACOLA      CLEAR     66  60  81 N3        29.99F
PENSACOLA NAS  CLEAR     64  62  93 NW3       29.99F
MILTON NAS     CLEAR     63  60  90 N3        30.00F
CRESTVIEW      CLEAR     60  59  96 CALM      30.01F
DUKE FIELD       N/A     60  59  96 NW1       30.00S
VALPARAISO     CLEAR     67  59  74 NW3       29.99S
MARY ESTHER    CLEAR     65  59  80 N6        29.98F
TRI COUNTY     FAIR      62  61  96 CALM      30.00F
PANAMA CITY    FAIR      66  61  84 CALM      29.98S
TYNDALL AFB    CLEAR     69  62  78 NE3       29.99F
APALACHICOLA   CLEAR     68  66  93 CALM      29.97F

STATION/POSITION SKY/WX   TEMP    WIND        PRES    WAVE   SWELL
                          AIR SEA DIR/SP/G            HT/PER HT/PER
                          (F)     (DEG/KT/KT) (MB)    (FT/S) (FT/S)
30.1N   87.6W              80 83   40/ 10/ 12 1015.5F   1/ 2
29.2N   88.2W              81 85   30/  6/  8 1015.9F
28.8N   86.0W              82 85  360/  4/  6 1015.1F   1/ 3
PANAMA CITY BEAC           72 80   30/  4/  6 1015.3F
CAPE SAN BLAS    NOT AVBL
TOWER C                    80     340/  8/  9 1014.7F
28.5N   84.5W              83 85  330/  8/ 10 1014.7F   1/ 5   2/ 5

$$
FLZ011-016>038-118-127-128-134-139-239-310800-
NORTH FLORIDA

CITY           SKY/WX    TMP DP  RH WIND       PRES   REMARKS
MARIANNA       PTCLDY    66  65  96 S3        29.98F
TALLAHASSEE      N/A    N/A N/A N/A MISG      29.98F
PERRY          CLEAR     66  64  94 CALM      29.98S
CROSS CITY       N/A     69  66  90 CALM      29.96F
GAINESVILLE    CLEAR     68  65  90 CALM      29.97S
MAYPORT NAS    PTCLDY    78  73  84 SW6       29.95S
JACKSONVILLE   PTCLDY    72  72 100 CALM      29.95S
JAX NAS        PTCLDY    82  74  76 W5        29.96S
JAX CRAIG      CLEAR     76  72  87 CALM      29.95S
JAX CECIL      CLEAR     70  64  83 CALM      29.96S
FERNANDINA BEA FAIR      77  72  83 CALM      29.94S
ST AUGUSTINE   CLEAR     77  69  76 SW5       29.96F

STATION/POSITION SKY/WX   TEMP    WIND        PRES    WAVE   SWELL
                          AIR SEA DIR/SP/G            HT/PER HT/PER
                          (F)     (DEG/KT/KT) (MB)    (FT/S) (FT/S)
SHELL POINT                77     350/  4/  6   N/A
KEATON BEACH               75      10/  3/  4 1014.8F
CEDAR KEY                  78      20/  3/  3 1015.0F
FERNANDINA                 81 86  280/  2/  3 1013.7S
30.7N   81.3W                 85                N/A     2/ 5
MAYPORT                    79 86  210/  4/  5   N/A
31.4N   80.9W              84 85  100/ 16/ 17 1014.2F   3/ 5
ST AUGUSTINE               78     230/  6/  6 1015.0F

$$
FLZ040-043>046-052-053-057-058-063-144-310800-
INTERIOR CENTRAL FLORIDA

CITY           SKY/WX    TMP DP  RH WIND       PRES   REMARKS
OCALA          CLEAR     70  61  73 CALM      29.98S
LEESBURG       CLEAR     76  67  73 N6        29.98S
SANFORD        CLEAR     78  73  84 CALM      29.97S
ORLANDO EXEC   CLEAR     78  74  87 NE3       29.96F
ORLANDO INTL   CLEAR     78  72  81 CALM      29.96F
WINTER HAVEN   CLEAR     77  65  66 NW6       29.98F
LAKELAND       CLEAR     73  64  73 CALM      29.98S
BARTOW         FAIR      75  66  73 CALM      29.98S
OKEECHOBEE       N/A     73  73 100 MISG      29.97F

$$
FLZ041-047-054-059-064-141-147-310800-
EAST CENTRAL FLORIDA

CITY           SKY/WX    TMP DP  RH WIND       PRES   REMARKS
DAYTONA BEACH  CLEAR     75  73  93 CALM      29.97S
DELAND         SUNNY     73  72  94 CALM      29.98S
JFK SPACE CTR  CLOUDY    78  78 100 S2        29.96F
CAPE CANAVERAL MOCLDY    75  74  96 S2        29.96S
PATRICK AFB    MOCLDY    81  75  81 S3        29.96F
MELBOURNE      CLOUDY    80  75  84 CALM      29.96F
VERO BEACH     PTCLDY    75  73  93 CALM      29.96F
FT PIERCE      MOCLDY    77  74  90 SE5       29.97S
STUART         MOCLDY    77  73  88 S3        29.98F

STATION/POSITION SKY/WX   TEMP    WIND        PRES    WAVE   SWELL
                          AIR SEA DIR/SP/G            HT/PER HT/PER
                          (F)     (DEG/KT/KT) (MB)    (FT/S) (FT/S)
28.5N   80.2W              82 83  190/  4/  4 1015.2S
28.9N   78.5W              83 85  160/ 12/ 14 1015.3S   2/ 8   2/ 8
TRIDENT PIER               81 85  140/  1/  2 1014.2F
28.4N   80.5W                 83                N/A     1/ 8
27.6N   80.2W                 83                N/A     1/ 8

$$
FLZ050-056-061-142-242-148-248-149-249-151-251-155-255-
160-260-310800-
WEST CENTRAL FLORIDA

CITY           SKY/WX    TMP DP  RH WIND       PRES   REMARKS
CRYSTAL RIVER  FAIR      70  64  83 CALM      29.97S
INVERNESS      PTSUNNY   72  64  78 CALM      29.98S
BROOKSVILLE    MOCLDY    73  67  81 CALM      29.99S
ZEPHYRHILLS    FAIR      70  68  94 CALM      29.99S
CLEARWATER     PTCLDY    81  67  62 N3        29.97F
TAMPA INTL     PTCLDY    80  65  59 CALM      29.98S
TAMPA EXEC     PTCLDY    73  70  88 CALM      29.98F
PLANT CITY     CLEAR     75  70  83 CALM      29.99F
MACDILL AFB    PTCLDY    77  68  73 NE3       29.97F
ST PETERSBURG  PTCLDY    83  67  58 N3        29.96S
SARASOTA       PTCLDY    76  68  76 CALM      29.96F
VENICE         FAIR      77  72  83 NE3       29.98F

STATION/POSITION SKY/WX   TEMP    WIND        PRES    WAVE   SWELL
                          AIR SEA DIR/SP/G            HT/PER HT/PER
                          (F)     (DEG/KT/KT) (MB)    (FT/S) (FT/S)
CEDAR KEY                  78      20/  3/  3 1015.0F
28.5N   84.5W              83 85  330/  8/ 10 1014.7F   1/ 5   2/ 5
27.3N   84.3W                 86                N/A     2/ 4
CLEARWATER BEACH           83 88   20/  6/  7 1014.5F
MIDDLE TAMPA BAY           84      10/  7/  9 1015.1F
VENICE                     80 89   40/  4/  5 1014.6F

$$
FLZ066-069-070-075>078-162-262-165-265-310800-
SOUTHWEST FLORIDA AND KEYS

CITY           SKY/WX    TMP DP  RH WIND       PRES   REMARKS
PUNTA GORDA    MOCLDY    77  75  93 NE3       29.99S
FT MYERS       MOCLDY    78  76  93 E3        29.96F
SOUTHWEST INTL MOCLDY    78  75  90 CALM      29.97S
NAPLES         CLOUDY    80  79  96 CALM      29.96F
MARCO ISLAND   SUNNY     81  73  78 NE3       29.97S
MARATHON       CLOUDY    78  76  93 CALM      29.98F
KEY WEST NAS   CLOUDY    82  74  76 W3        29.97F
KEY WEST INTL  CLOUDY    78  74  87 CALM      29.98F

STATION/POSITION SKY/WX   TEMP    WIND        PRES    WAVE   SWELL
                          AIR SEA DIR/SP/G            HT/PER HT/PER
                          (F)     (DEG/KT/KT) (MB)    (FT/S) (FT/S)
VENICE                     80 89   40/  4/  5 1014.6F
NAPLES                     81 92   CALM  /  2 1015.2S
DRY TORTUGAS               85     230/  1/  3 1015.0F
NW FL BAY                  82     160/ 13/ 18 1015.7S
SAND KEY                   83      60/  5/  7 1015.2F
SOMBRERO KEY               83      60/  3/  4 1015.9F
LONG KEY                   83 90  250/ 11/ 12 1015.7F
MOLASSES REEF              84 87  210/  6/  8 1015.2F

$$
FLZ067-068-071>074-168-172>174-310800-
SOUTHEAST FLORIDA

CITY           SKY/WX    TMP DP  RH WIND       PRES   REMARKS
W PALM BEACH   MOCLDY    78  75  90 CALM      29.96F
FT LAUDER-EXEC MOCLDY    79  78  97 S3        29.97F
FT LAUDERDALE  MOCLDY    80  76  87 SW3       29.97F
POMPANO BEACH  MOCLDY   N/A N/A N/A MISG      29.97F
PEMBROKE PINES PTCLDY    79  73  82 S5        29.99F
OPA LOCKA      MOCLDY    77  73  87 S6        29.98F
MIAMI          MOCLDY    79  75  87 E3        29.98F
WEST KENDALL   PTCLDY    80  75  84 SW5       29.98F
HOMESTEAD      PTCLDY    78  75  91 SW3       29.98S

STATION/POSITION SKY/WX   TEMP    WIND        PRES    WAVE   SWELL
                          AIR SEA DIR/SP/G            HT/PER HT/PER
                          (F)     (DEG/KT/KT) (MB)    (FT/S) (FT/S)
PORT EVERGLADES            80     230/  2/  3 1015.0
VIRGINIA KEY                      350/  4/  9   N/A
LAKE WORTH                 80 83  220/  5/  7 1014.6F
FOWEY ROCKS                85 85  190/ 11/ 13 1015.2F
SETTLEMENT POINT           83     170/  9/ 11 1015.8F

$$




USA.gov is the U.S. government's official web portal to all federal, state and local government web resources and services.